Location: Proctor
(47.8934°N, 114.3048°W)
Time: 17:31:27
(UTC+00:00)

Transit 4A - Pass Details

Date: 15 May 2025
Orbit: 866 x 975 km, 66.8° (Epoch: 13 June)

Event Time Altitude Azimuth Distance (km) Brightness Sun altitude
Rises 09:09:22 0° 322° (NW) 3,622 11.4 -19.8°
Reaches altitude 10° 09:12:51 10° 341° (NNW) 2,654 10.9 -19.5°
Maximum altitude 09:16:59 18° 23° (NNE) 2,093 10.8 -19.2°
Drops below altitude 10° 09:21:03 10° 66° (ENE) 2,597 10.9 -18.9°
Sets 09:24:24 0° 85° (E) 3,514 11.4 -18.7°
